Location: Agenbach
(47.2667°N, 11.4500°E)
Time: 19:17:02
(UTC+00:00)

SL-4 R/B - Pass Details

Date: 07 June 2020
Orbit: 428 x 666 km, 51.6° (Epoch: 10 July)

Event Time Altitude Azimuth Distance (km) Brightness Sun altitude
Rises 01:08:16 0° 295° (WNW) 3,008 5.8 -15.3°
Reaches altitude 10° 01:10:40 10° 292° (WNW) 2,089 4.9 -15.1°
Maximum altitude 01:15:27 62° 213° (SSW) 736 2.3 -14.7°
Drops below altitude 10° 01:20:03 10° 132° (SE) 2,010 4.8 -14.3°
Sets 01:22:19 0° 129° (SE) 2,884 5.6 -14.1°
